Regional Weather Roundup
Issued by NWS

Home | Current Version | Previous Version | Text Only | Print | Product List | Glossary Off
Versions: 1 2 3 4 5 6 7 8 9 10 11 12 13 14 15 16 17 18 19 20 21 22 23 24 25 26 27 28 29 30 31 32 33 34 35 36 37 38 39 40 41 42 43 44 45 46 47 48 49 50

000
ASUS43 KLMK 040602
RWRKY
KENTUCKY REGIONAL WEATHER ROUNDUP
NATIONAL WEATHER SERVICE LOUISVILLE KY
100 AM EST WED MAR 04 2015

NOTE "FAIR" INDICATES FEW OR NO CLOUDS BELOW 12,000 FEET
WITH NO SIGNIFICANT WEATHER AND/OR OBSTRUCTIONS TO VISIBILITY.

KYZ001>023-026-027-061>063-070>075-040700-
WESTERN AND SOUTH CENTRAL KENTUCKY

CITY           SKY/WX    TMP DP  RH WIND       PRES   REMARKS
PADUCAH        RAIN      47  46  97 N6        29.89S FOG
HENDERSON      CLOUDY    43  39  87 CALM      29.89F
OWENSBORO      HVY RAIN  44  43  97 CALM      29.90R FOG
HOPKINSVILLE   LGT RAIN  52  51  95 N8        29.87S
BOWLING GREEN  LGT RAIN  54  50  86 NW10      29.88R
GLASGOW        NOT AVBL
$$

KYZ024-025-028>034-038-045-046-053-040700-
NORTH CENTRAL KENTUCKY

CITY           SKY/WX    TMP DP  RH WIND       PRES   REMARKS
LOUISVILLE/SDF RAIN      44  42  93 N6        29.88F FOG
LOUISVILLE/LOU RAIN      44  42  93 NW5       29.90F FOG
FORT KNOX      HVY RAIN  45  44  95 NW6       29.89R FOG
$$

KYZ035>037-039>044-047>052-055>060-089>105-040700-
NORTHEAST KENTUCKY

CITY           SKY/WX    TMP DP  RH WIND       PRES   REMARKS
LEXINGTON      RAIN      48  47  96 NW8       29.87R FOG
COVINGTON      LGT RAIN  39  39 100 W5        29.85R FOG
FRANKFORT      RAIN      46  44  93 NW9       29.89R FOG
$$

KYZ054-064>069-076>088-106>120-040700-
SOUTHEAST KENTUCKY

CITY           SKY/WX    TMP DP  RH WIND       PRES   REMARKS
JACKSON        RAIN      56  55  97 VRB6      29.84F FOG
LONDON         CLOUDY    61  55  81 SW16G25   29.86F
SOMERSET       NOT AVBL
MIDDLESBORO    NOT AVBL
MONTICELLO     CLOUDY    64  60  87 SW20G26   29.89F
$$



USA.gov is the U.S. government's official web portal to all federal, state and local government web resources and services.